Printer-friendly version

IAU Minor Planet Center

Minor Planet Center

MPEC 2006-O24 : 2005 RM43

The following Minor Planet Electronic Circular may be linked-to from your own Web pages, but must not otherwise be redistributed electronically.


Read MPEC 2006-O23 Read MPEC 2006-O25


M.P.E.C. 2006-O24                                Issued 2006 July 23, 00:51 UT

     The Minor Planet Electronic Circulars contain information on unusual
         minor planets and routine data on comets.  They are published
   on behalf of Commission 20 of the International Astronomical Union by the
          Minor Planet Center, Smithsonian Astrophysical Observatory,
                          Cambridge, MA 02138, U.S.A.

                  Supported in part by the Brinson Foundation
                  Supported in part by the TABASGO Foundation
             Prepared using the Tamkin Foundation Computer Network

                              MPC@CFA.HARVARD.EDU
          URL http://cfa-www.harvard.edu/iau/mpc.html  ISSN 1523-6714

                                   2005 RM43

Observations:
     K05R43M 4C1999 10 13.41757 02 45 02.33 -08 21 32.0          20.0 V EO024705
     K05R43M 4C1999 10 13.42089 02 45 02.32 -08 21 32.1          20.5   EO024705
     K05R43M 4C2000 09 26.41949 02 53 22.22 -06 51 15.2          20.1 V EO024705
     K05R43M 4C2000 09 26.42281 02 53 22.21 -06 51 15.3          20.7   EO024705
     K05R43M 4C2000 11 27.16418 02 48 09.14 -07 11 15.3          20.0 V EO024705
     K05R43M 4C2000 11 27.16751 02 48 09.13 -07 11 15.2          20.6   EO024705
     K05R43M*4C2005 09 09.46437 03 29 24.55 +00 10 04.0          20.1 V EO024705
     K05R43M 4C2005 09 09.46769 03 29 24.55 +00 10 04.0          20.7   EO024705
     K05R43M 4C2005 09 14.42137 03 29 16.26 +00 07 54.6          20.2 V EO024705
     K05R43M 4C2005 09 14.42469 03 29 16.25 +00 07 54.4          20.7   EO024705
     K05R43M 4C2005 09 25.45476 03 28 48.95 +00 02 58.0          20.1 V EO024705
     K05R43M 4C2005 09 25.45808 03 28 48.93 +00 02 57.8          20.6   EO024705
     K05R43M 4C2005 09 27.41873 03 28 42.88 +00 02 04.9          20.1 V EO024705
     K05R43M 4C2005 09 27.42205 03 28 42.86 +00 02 04.6          20.7   EO024705
     K05R43M 4C2005 09 30.46109 03 28 32.79 +00 00 42.7          20.1 V EO024705
     K05R43M 4C2005 09 30.46441 03 28 32.77 +00 00 42.6          20.6   EO024705
     K05R43M 4C2005 10 01.40584 03 28 29.51 +00 00 17.2          20.0 V EO024705
     K05R43M 4C2005 10 01.40916 03 28 29.47 +00 00 17.6          20.6   EO024705
     K05R43M 4C2005 10 14.41623 03 27 36.88 -00 05 19.9          20.0 V EO024705
     K05R43M 4C2005 10 14.41956 03 27 36.85 -00 05 19.8          20.6   EO024705
     K05R43M 4C2005 10 22.37832 03 26 59.04 -00 08 27.0          20.2 V EO024705
     K05R43M 4C2005 10 22.38164 03 26 59.02 -00 08 27.1          20.3   EO024705
     K05R43M 4C2005 10 23.47036 03 26 53.57 -00 08 51.2          20.0 V EO024705
     K05R43M 4C2005 10 23.47368 03 26 53.55 -00 08 51.4          20.5   EO024705
     K05R43M 4C2005 10 25.38977 03 26 43.84 -00 09 32.6          20.0 V EO024705
     K05R43M 4C2005 10 25.39309 03 26 43.81 -00 09 32.7          20.6   EO024705
     K05R43M 4C2005 10 26.47731 03 26 38.23 -00 09 55.5          20.1 V EO024705
     K05R43M 4C2005 10 26.48063 03 26 38.21 -00 09 55.6          20.6   EO024705
     K05R43M 4C2005 10 27.39450 03 26 33.48 -00 10 14.3          20.1 V EO024705
     K05R43M 4C2005 10 27.39782 03 26 33.46 -00 10 14.4          20.8   EO024705
     K05R43M 4C2005 10 30.36231 03 26 17.85 -00 11 13.2          20.0 V EO024705
     K05R43M 4C2005 10 30.36563 03 26 17.83 -00 11 13.3          20.5   EO024705
     K05R43M 4C2005 11 02.47864 03 26 01.09 -00 12 11.0          19.8 V EO024705
     K05R43M 4C2005 11 02.48197 03 26 01.06 -00 12 11.1          20.4   EO024705
     K05R43M 4C2005 11 07.41003 03 25 34.04 -00 13 32.6          20.0 V EO024705
     K05R43M 4C2005 11 07.41335 03 25 34.02 -00 13 32.6          20.5   EO024705
     K05R43M 4C2005 11 10.37134 03 25 17.58 -00 14 15.5          19.9 V EO024705
     K05R43M 4C2005 11 10.37466 03 25 17.56 -00 14 15.6          20.5   EO024705
     K05R43M 4C2005 11 13.31247 03 25 01.12 -00 14 53.6          20.0 V EO024705
     K05R43M 4C2005 11 13.31579 03 25 01.10 -00 14 53.7          20.5   EO024705

Observer details:
705 Apache Point.  Observers SDSS Collaboration.  Measurers A. C. Becker,
    A. W. Puckett, J. Kubika.  2.5-m f/5 Ritchey-Chretien + CCD.

Orbital elements:
2005 RM43
Epoch 2006 Sept. 22.0 TT = JDT 2454000.5                MPC
M   0.79084              (2000.0)            P               Q
n   0.00115911     Peri.  318.36065     +0.65017082     -0.58941735
a  89.7538541      Node    84.59083     +0.75953870     +0.52038028
e   0.6088968      Incl.   28.78911     -0.01946454     +0.61789283
P 850              H    4.4           G   0.15           U   2
Residuals in seconds of arc
J99AD  705  0.1-  0.0     K059U  705  0.0   0.0     K05AR  705  0.0   0.1+
J99AD  705  0.0   0.0     K059U  705  0.1-  0.0     K05AR  705  0.0   0.0
K009Q  705  0.0   0.0     K05A1  705  0.2+  0.1-    K05AU  705  0.1+  0.0
K009Q  705  0.0   0.0     K05A1  705  0.2-  0.4+    K05AU  705  0.0   0.0
K00BR  705  0.1-  0.1-    K05AE  705  0.1+  0.1-    K05B2  705  0.1+  0.2-
K00BR  705  0.1+  0.0     K05AE  705  0.1-  0.1+    K05B2  705  0.1-  0.2-
K0599  705  0.1-  0.0     K05AM  705  0.0   0.1+    K05B7  705  0.0   0.0
K0599  705  0.0   0.1+    K05AM  705  0.0   0.1+    K05B7  705  0.0   0.0
K059E  705  0.1+  0.0     K05AN  705  0.0   0.0     K05BA  705  0.1+  0.1+
K059E  705  0.1+  0.1-    K05AN  705  0.0   0.1-    K05BA  705  0.1+  0.1+
K059P  705  0.0   0.0     K05AP  705  0.1+  0.0     K05BD  705  0.1-  0.0
K059P  705  0.1-  0.1-    K05AP  705  0.1-  0.0     K05BD  705  0.1-  0.0
K059R  705  0.0   0.1+    K05AQ  705  0.0   0.0
K059R  705  0.2-  0.1-    K05AQ  705  0.0   0.1-

Ephemeris:
2005 RM43                a,e,i = 89.75, 0.61, 29                 q = 35.103
Date    TT    R. A. (2000) Decl.     Delta      r     Elong.  Phase     V
2006 07 14    03 34.61   +01 44.9   35.611   35.131    61.1     1.5    20.1
2006 07 24    03 35.33   +01 44.6   35.467   35.131    70.0     1.6    20.1
2006 08 03    03 35.88   +01 43.4   35.313   35.132    78.9     1.6    20.1
2006 08 13    03 36.26   +01 41.4   35.154   35.133    88.0     1.7    20.1
2006 08 23    03 36.47   +01 38.7   34.994   35.134    97.1     1.6    20.1
2006 09 02    03 36.49   +01 35.3   34.838   35.135   106.4     1.6    20.0
2006 09 12    03 36.34   +01 31.4   34.690   35.136   115.6     1.5    20.0
2006 09 22    03 36.00   +01 27.3   34.554   35.137   124.8     1.3    20.0
2006 10 02    03 35.51   +01 23.1   34.435   35.138   134.0     1.2    20.0
2006 10 12    03 34.87   +01 19.0   34.338   35.139   142.9     1.0    20.0
2006 10 22    03 34.11   +01 15.2   34.264   35.140   151.3     0.8    19.9
2006 11 01    03 33.26   +01 11.9   34.216   35.141   158.4     0.6    19.9
2006 11 11    03 32.34   +01 09.2   34.197   35.142   162.4     0.5    19.9
2006 11 21    03 31.41   +01 07.4   34.208   35.143   161.0     0.5    19.9
2006 12 01    03 30.48   +01 06.6   34.247   35.145   155.2     0.7    19.9
2006 12 11    03 29.61   +01 06.8   34.315   35.146   147.1     0.9    19.9
2006 12 21    03 28.82   +01 08.2   34.408   35.147   138.1     1.1    20.0
2006 12 31    03 28.14   +01 10.7   34.525   35.148   128.7     1.3    20.0
2007 01 10    03 27.61   +01 14.4   34.660   35.149   119.1     1.4    20.0
2007 01 20    03 27.24   +01 19.1   34.811   35.150   109.4     1.5    20.0
2007 01 30    03 27.05   +01 24.8   34.972   35.151    99.7     1.6    20.1
2007 02 09    03 27.05   +01 31.4   35.139   35.153    90.0     1.6    20.1
2007 02 19    03 27.24   +01 38.6   35.305   35.154    80.4     1.6    20.1
2007 03 01    03 27.62   +01 46.4   35.467   35.155    70.9     1.5    20.1
2007 03 11    03 28.17   +01 54.6   35.619   35.156    61.5     1.4    20.1

Gareth V. Williams           (C) Copyright 2006 MPC           M.P.E.C. 2006-O24

Read MPEC 2006-O23 Read MPEC 2006-O25


Our Web policy. Index to the CBAT/MPC/ICQ pages.


Valid HTML 4.01!